EW8621 Weather Reports


time (UTC)temp
F
wind
direction
speed
knots
gust
knots
rain 1hr
in
rain 24hr
in
rain mn
in
humidity
%
barometer
mb
20260507002452 49 355 0.9 2.6 0.00 0.39 0.00 89 1010.2
20260507001952 49 6 0.0 2.6 0.00 0.39 0.00 89 1010.3
20260507001451 48 14 0.9 2.6 0.00 0.39 0.00 90 1010.3
20260507001006 48 343 0.9 2.6 0.00 0.40 0.00 90 1010.4
20260507000450 48 51 1.7 1.7 0.00 0.40 0.00 90 1010.3
20260506235951 48 7 0.9 1.7 0.00 0.41 0.00 90 1010.3
20260506235451 48 44 0.0 1.7 0.00 0.41 0.00 90 1010.2
20260506234949 48 350 0.0 0.9 0.00 0.41 0.00 90 1010.2
20260506234448 48 348 0.0 0.9 0.00 0.42 0.00 90 1010.3
20260506234214 48 358 0.9 0.9 0.00 0.42 0.00 90 1010.1
20260506233714 48 15 0.0 0.9 0.00 0.42 0.00 90 1010.2
20260506232947 49 336 0.0 0.9 0.00 0.42 0.00 90 1010.0
20260506232458 49 336 0.0 1.7 0.00 0.43 0.00 90 1010.1
20260506231946 49 345 0.0 1.7 0.00 0.43 0.00 90 1010.1
20260506231457 49 348 0.0 1.7 0.00 0.43 0.00 90 1010.1
20260506230943 49 357 0.0 0.9 0.00 0.43 0.00 90 1010.1
20260506230443 49 340 0.0 1.7 0.00 0.43 0.00 90 1009.9
20260506225944 49 331 0.0 1.7 0.00 0.44 0.00 90 1010.2
20260506225442 49 354 0.9 1.7 0.00 0.44 0.00 90 1010.0
20260506224942 49 323 0.9 1.7 0.00 0.45 0.00 90 1010.1
20260506224441 49 324 0.0 1.7 0.00 0.45 0.00 90 1010.1
20260506223942 49 337 0.9 1.7 0.00 0.46 0.00 90 1009.9
20260506223439 49 330 0.0 0.9 0.00 0.46 0.00 89 1010.2
20260506222939 49 347 0.0 0.9 0.00 0.46 0.00 89 1010.0
20260506222438 49 344 0.0 1.7 0.00 0.47 0.00 90 1010.2
20260506222202 49 354 0.0 1.7 0.00 0.47 0.00 90 1010.1
20260506221437 49 13 0.0 1.7 0.00 0.47 0.00 90 1010.0
20260506220937 49 346 0.9 1.7 0.00 0.48 0.00 90 1010.2
20260506220437 49 15 0.0 3.5 0.00 0.48 0.00 90 1010.0
20260506215936 49 32 2.6 3.5 0.00 0.49 0.49 91 1010.1
20260506215435 49 20 0.9 2.6 0.00 0.49 0.49 91 1010.0
20260506214935 49 337 0.9 1.7 0.00 0.49 0.49 91 1010.1
20260506214435 49 348 0.9 1.7 0.00 0.49 0.49 92 1009.8
20260506214203 49 355 0.0 0.9 0.00 0.49 0.49 92 1009.9
20260506213433 49 353 0.0 0.9 0.00 0.49 0.49 92 1009.7
20260506212933 49 353 0.0 0.9 0.00 0.49 0.49 92 1009.8
20260506212431 49 353 0.0 0.0 0.00 0.49 0.49 92 1009.9
20260506211931 49 353 0.0 0.9 0.00 0.49 0.49 92 1009.9
20260506211430 49 353 0.0 0.9 0.00 0.49 0.49 91 1009.8
20260506210931 49 353 0.0 0.0 0.00 0.49 0.49 91 1009.9
20260506210429 49 353 0.0 0.0 0.00 0.49 0.49 91 1009.7
20260506205929 49 353 0.0 0.9 0.00 0.49 0.49 91 1009.8
20260506205428 49 353 0.0 0.9 0.00 0.49 0.49 91 1009.7
20260506204929 49 353 0.0 0.9 0.00 0.49 0.49 91 1009.6
20260506204427 49 353 0.9 0.9 0.00 0.49 0.49 91 1009.8
20260506203927 49 353 0.0 0.0 0.00 0.49 0.49 91 1009.6
20260506203426 49 353 0.0 0.0 0.00 0.49 0.49 91 1009.9
20260506202927 49 353 0.0 0.0 0.00 0.49 0.49 91 1009.7
20260506202426 49 353 0.0 0.0 0.00 0.49 0.49 90 1009.5
20260506201924 49 353 0.0 0.0 0.00 0.49 0.49 90 1009.6
20260506201647 49 353 0.0 0.0 0.00 0.49 0.49 90 1009.6
20260506200925 49 353 0.0 0.9 0.00 0.49 0.49 90 1009.5
20260506200423 49 353 0.0 0.9 0.00 0.49 0.49 89 1009.5
20260506195922 49 353 0.0 0.9 0.00 0.49 0.49 89 1009.5
20260506195422 49 353 0.0 0.9 0.00 0.49 0.49 89 1009.4
20260506194922 49 353 0.0 0.9 0.00 0.49 0.49 89 1009.3
20260506193920 49 349 0.0 0.9 0.00 0.49 0.49 89 1009.3
20260506193420 49 349 0.0 0.9 0.00 0.49 0.49 88 1009.3
20260506193143 49 346 0.0 0.9 0.00 0.49 0.49 88 1009.1
20260506192418 49 346 0.0 0.9 0.00 0.49 0.49 88 1009.2
20260506191919 49 346 0.0 0.9 0.00 0.49 0.49 88 1009.2
20260506191430 49 345 0.9 2.6 0.00 0.49 0.49 88 1009.0
20260506190916 50 49 0.0 2.6 0.00 0.49 0.49 88 1009.0
20260506190416 50 6 0.9 2.6 0.00 0.49 0.49 88 1008.8
20260506185917 50 13 0.0 2.6 0.00 0.49 0.49 88 1008.9
20260506185640 50 355 0.0 1.7 0.00 0.49 0.49 88 1008.8
20260506184914 50 50 0.0 1.7 0.00 0.49 0.49 88 1008.7
20260506184413 50 337 0.0 1.7 0.00 0.49 0.49 88 1008.6
20260506183922 50 3 0.0 2.6 0.00 0.49 0.49 88 1008.5
20260506183412 50 35 0.0 2.6 0.00 0.49 0.49 87 1008.5
20260506182912 50 38 0.9 2.6 0.00 0.49 0.49 87 1008.3
20260506182411 50 331 0.0 1.7 0.00 0.49 0.49 87 1008.3
20260506182147 50 61 0.0 1.7 0.00 0.49 0.49 87 1008.2
20260506181411 50 359 0.0 3.5 0.00 0.49 0.49 87 1008.4
20260506180909 50 343 0.9 3.5 0.00 0.49 0.49 87 1008.4
20260506180408 50 61 0.9 2.6 0.00 0.49 0.49 87 1008.3
20260506175908 50 61 0.9 5.2 0.00 0.49 0.49 87 1008.1
20260506175409 50 46 1.7 5.2 0.00 0.49 0.49 87 1008.0
20260506174907 50 60 1.7 5.2 0.00 0.49 0.49 87 1008.0
20260506173907 50 11 0.9 3.5 0.00 0.49 0.49 88 1007.8
20260506173405 50 359 0.0 5.2 0.00 0.49 0.49 88 1007.8
20260506172904 50 36 0.0 5.2 0.00 0.49 0.49 88 1007.8
20260506172404 50 40 1.7 3.5 0.00 0.49 0.49 88 1007.7
20260506171905 50 15 0.9 2.6 0.00 0.49 0.49 88 1007.8
20260506171403 50 354 0.0 3.5 0.00 0.49 0.49 88 1007.5
20260506170902 50 358 1.7 3.5 0.00 0.49 0.49 88 1007.5
20260506170402 50 30 0.9 3.5 0.00 0.49 0.49 88 1007.6
20260506170129 50 41 1.7 3.5 0.00 0.49 0.49 88 1007.6
20260506165401 50 102 0.9 3.5 0.00 0.49 0.49 88 1007.6
20260506165124 50 59 0.9 5.2 0.00 0.49 0.49 88 1007.5
20260506164400 50 345 3.5 5.2 0.00 0.49 0.49 88 1007.5
20260506163902 50 356 0.9 3.5 0.00 0.49 0.49 88 1007.8
20260506163359 50 355 0.0 2.6 0.00 0.49 0.49 89 1007.7
20260506162857 50 91 1.7 2.6 0.00 0.49 0.49 89 1007.5
20260506162357 50 334 0.0 2.6 0.00 0.49 0.49 89 1007.6
20260506161858 50 354 0.9 1.7 0.00 0.49 0.49 89 1007.6
20260506161356 50 77 0.0 2.6 0.00 0.49 0.49 89 1007.5
20260506160356 50 318 1.7 3.5 0.00 0.49 0.49 88 1007.6
20260506155854 50 2 0.0 0.9 0.00 0.49 0.49 89 1007.6
20260506155619 50 38 0.0 1.7 0.00 0.49 0.49 88 1007.6
20260506154854 51 13 0.0 5.2 0.00 0.49 0.49 88 1007.3
20260506153852 51 326 1.7 6.1 0.00 0.49 0.49 88 1007.5
20260506153352 51 341 1.7 6.1 0.00 0.49 0.49 88 1007.5
20260506152850 51 43 1.7 3.5 0.00 0.49 0.49 88 1007.5
20260506152350 51 60 1.7 6.1 0.00 0.49 0.49 89 1007.4
20260506151849 50 37 0.0 6.1 0.00 0.49 0.49 89 1007.5
20260506151350 50 9 1.7 7.8 0.00 0.49 0.49 88 1007.2
20260506150848 50 350 1.7 7.8 0.00 0.49 0.49 89 1007.4
20260506150348 50 18 0.0 6.1 0.00 0.49 0.49 89 1007.4
20260506145847 51 325 0.9 6.1 0.00 0.49 0.49 89 1007.4
20260506145347 51 19 2.6 6.1 0.00 0.49 0.49 89 1007.4
20260506144849 51 328 0.9 3.5 0.00 0.49 0.49 90 1007.3
20260506144346 51 48 0.0 5.2 0.00 0.49 0.49 90 1007.2
20260506143844 50 31 0.9 5.2 0.00 0.49 0.49 89 1007.4
20260506143345 51 17 0.0 5.2 0.00 0.49 0.49 89 1007.2
20260506142844 51 296 0.9 5.2 0.00 0.49 0.49 90 1007.2
20260506142342 51 341 3.5 5.2 0.00 0.49 0.49 90 1007.1
20260506141842 51 6 1.7 2.6 0.00 0.49 0.49 90 1007.2
20260506141343 51 31 1.7 2.6 0.00 0.49 0.49 91 1007.0
20260506140841 51 66 0.9 2.6 0.00 0.49 0.49 91 1007.1
20260506140341 50 51 1.7 5.2 0.00 0.49 0.49 91 1007.1
20260506135840 50 97 0.9 5.2 0.00 0.49 0.49 91 1007.1
20260506135339 50 342 1.7 6.1 0.00 0.49 0.49 90 1007.2
20260506135101 50 346 4.3 6.1 0.00 0.49 0.49 90 1007.1
20260506134338 50 51 2.6 7.8 0.00 0.49 0.49 90 1007.2
20260506133837 50 347 1.7 7.8 0.00 0.49 0.49 90 1007.1
20260506133558 50 13 2.6 7.0 0.00 0.49 0.49 90 1007.0
20260506132836 50 334 0.9 7.0 0.00 0.49 0.49 92 1007.1
20260506132336 50 332 0.9 5.2 0.00 0.49 0.49 92 1007.1
20260506131835 50 359 0.9 5.2 0.00 0.49 0.49 92 1007.0
20260506131555 50 29 0.9 5.2 0.00 0.49 0.49 92 1007.0
20260506130834 50 350 1.7 3.5 0.00 0.49 0.49 92 1007.0
20260506130333 50 13 1.7 2.6 0.00 0.49 0.49 92 1006.9
20260506125832 50 346 0.9 2.6 0.00 0.49 0.49 92 1006.9
20260506125333 50 343 0.0 3.5 0.00 0.49 0.49 92 1007.0
20260506124833 50 353 0.9 3.5 0.00 0.49 0.49 92 1006.9
20260506124331 50 2 1.7 3.5 0.01 0.49 0.49 92 1007.0
20260506124055 50 25 0.0 5.2 0.00 0.49 0.49 92 1006.8
20260506123331 50 25 3.5 7.8 0.00 0.49 0.49 92 1006.8
20260506122829 50 61 1.7 7.8 0.00 0.49 0.49 91 1006.7
20260506122329 50 329 1.7 7.8 0.00 0.49 0.49 92 1006.8
20260506121830 50 345 2.6 7.8 0.00 0.49 0.49 92 1006.8
20260506121329 50 1 3.5 6.1 0.01 0.49 0.49 93 1006.7
20260506120827 50 52 1.7 3.5 0.01 0.49 0.49 93 1006.7
20260506120327 50 9 0.9 3.5 0.01 0.49 0.49 93 1006.6
20260506115825 50 78 0.9 6.1 0.01 0.49 0.49 94 1006.6
20260506115327 50 11 1.7 6.1 0.01 0.49 0.49 93 1006.6
20260506115044 50 340 1.7 5.2 0.01 0.48 0.48 94 1006.7
20260506114324 50 340 0.0 5.2 0.01 0.48 0.48 94 1006.6
20260506114050 50 41 0.0 5.2 0.01 0.48 0.48 93 1006.4
20260506113553 50 352 0.9 6.1 0.01 0.48 0.48 93 1006.6
20260506112835 49 60 1.7 7.0 0.02 0.48 0.48 93 1006.4
20260506112322 49 8 0.0 7.0 0.02 0.48 0.48 94 1006.5
20260506112044 49 36 1.7 5.2 0.02 0.48 0.48 94 1006.5
20260506111547 49 337 2.6 5.2 0.02 0.48 0.48 94 1006.5
20260506110819 49 353 1.7 5.2 0.02 0.48 0.48 94 1006.6
20260506110336 49 11 2.6 3.5 0.02 0.48 0.48 94 1006.3
20260506105819 49 322 0.9 6.1 0.02 0.48 0.48 94 1006.4
20260506105318 49 17 1.7 6.1 0.03 0.48 0.48 94 1006.6
20260506104817 49 58 1.7 7.8 0.03 0.48 0.48 94 1006.5
20260506104318 49 349 1.7 7.8 0.03 0.48 0.48 94 1006.6
20260506103816 49 334 1.7 3.5 0.03 0.47 0.47 95 1006.3
20260506103316 49 2 1.7 7.8 0.03 0.47 0.47 95 1006.5
20260506102815 49 74 1.7 7.8 0.03 0.47 0.47 95 1006.4
20260506101814 49 317 0.9 7.0 0.04 0.46 0.46 95 1006.4
20260506101313 48 11 1.7 7.0 0.04 0.46 0.46 94 1006.2
20260506100813 48 2 1.7 5.2 0.04 0.46 0.46 94 1006.2
20260506100313 48 62 1.7 5.2 0.04 0.46 0.46 94 1006.1
20260506095812 48 12 0.0 6.1 0.05 0.46 0.46 94 1006.1
20260506095311 48 351 1.7 6.1 0.05 0.45 0.45 94 1006.1
20260506094810 48 42 0.9 7.0 0.05 0.45 0.45 94 1006.1
20260506094309 48 338 1.7 8.7 0.05 0.44 0.44 94 1006.1
20260506094033 48 16 0.9 8.7 0.05 0.44 0.44 94 1006.1
20260506093308 48 353 2.6 7.8 0.04 0.44 0.44 94 1006.0
20260506092808 48 37 0.9 7.0 0.05 0.44 0.44 94 1006.1
20260506092308 48 77 3.5 7.0 0.05 0.43 0.43 94 1005.9
20260506091810 48 329 0.9 7.0 0.04 0.43 0.43 94 1006.0
20260506091307 48 359 1.7 7.0 0.04 0.43 0.43 94 1005.9
20260506090806 48 283 0.0 7.0 0.04 0.42 0.42 94 1005.8
20260506090305 48 1 1.7 8.7 0.04 0.41 0.41 94 1005.9
20260506085804 48 49 5.2 8.7 0.03 0.41 0.41 94 1005.8
20260506085527 48 61 0.0 7.8 0.03 0.41 0.41 94 1005.6
20260506084304 49 328 1.7 8.7 0.03 0.40 0.40 94 1005.6
20260506083802 49 30 2.6 8.7 0.02 0.39 0.39 95 1005.6
20260506083521 49 351 3.5 8.7 0.02 0.39 0.39 95 1005.5
20260506082803 49 22 5.2 7.8 0.02 0.39 0.39 96 1005.5
20260506082300 49 3 4.3 6.1 0.02 0.39 0.39 96 1005.4
20260506081800 49 43 1.7 5.2 0.02 0.39 0.39 96 1005.2
20260506081259 49 28 0.9 5.2 0.02 0.38 0.38 96 1005.3
20260506081020 49 18 2.6 5.2 0.02 0.38 0.38 96 1005.4
20260506080258 49 327 2.6 5.2 0.01 0.38 0.38 96 1005.2
20260506073255 49 349 0.9 5.2 0.01 0.37 0.37 97 1005.2
20260506072756 49 42 0.0 7.8 0.01 0.37 0.37 97 1005.2
20260506072253 49 87 4.3 7.8 0.01 0.37 0.37 97 1005.1
20260506071756 49 333 0.0 6.1 0.02 0.37 0.37 97 1005.2
20260506071252 49 54 2.6 6.1 0.02 0.37 0.37 97 1005.0
20260506070752 49 352 1.7 6.1 0.09 0.37 0.37 97 1005.3
20260506070251 49 63 0.9 6.1 0.09 0.37 0.37 97 1005.0
20260506062300 48 354 0.9 6.1 0.08 0.36 0.36 97 1005.0
20260506062010 48 327 1.7 6.1 0.07 0.35 0.35 97 1005.0
20260506061246 48 82 0.9 3.5 0.07 0.35 0.35 97 1004.8
20260506060745 48 350 0.9 3.5 0.00 0.28 0.28 97 1005.0
20260506060244 48 320 0.0 5.2 0.00 0.28 0.28 97 1004.8
20260506051240 48 323 0.9 6.1 0.03 0.30 0.28 97 1004.9
20260506050738 48 350 3.5 6.1 0.03 0.30 0.28 97 1004.9
20260506050237 48 22 0.9 6.1 0.03 0.30 0.28 97 1004.9
20260506044736 48 340 1.7 5.2 0.03 0.30 0.28 97 1004.9
20260506044235 48 329 3.5 5.2 0.04 0.30 0.28 97 1004.9
20260506043735 48 28 0.9 5.2 0.04 0.30 0.28 97 1004.8
20260506043235 48 62 1.7 5.2 0.04 0.30 0.28 97 1004.9
20260506042733 48 58 0.9 3.5 0.05 0.30 0.28 97 1004.8
20260506042233 48 329 2.6 3.5 0.05 0.30 0.28 97 1004.7
20260506041732 48 342 1.7 2.6 0.02 0.27 0.25 97 1004.9
20260506041231 48 31 0.0 2.6 0.03 0.27 0.25 97 1004.9
20260506040950 48 323 0.9 5.2 0.03 0.27 0.25 97 1005.0
20260506040230 48 63 3.5 5.2 0.03 0.27 0.25 97 1004.9
20260506035730 48 40 0.9 5.2 0.04 0.27 0.25 97 1004.8
20260506035230 48 355 1.7 6.1 0.04 0.27 0.25 97 1004.9
20260506034947 48 31 0.0 6.1 0.04 0.26 0.24 97 1004.8
20260506033731 48 336 0.9 6.1 0.04 0.26 0.24 97 1004.9
20260506033227 48 0 0.0 5.2 0.04 0.25 0.24 97 1005.0
20260506032726 48 43 2.6 5.2 0.04 0.25 0.24 97 1004.8
20260506032225 48 358 2.6 5.2 0.04 0.25 0.23 97 1005.0
20260506031725 48 337 1.7 7.0 0.04 0.24 0.23 97 1005.1
20260506031452 48 54 3.5 7.0 0.04 0.24 0.22 97 1005.1
20260506030724 48 331 1.7 5.2 0.04 0.27 0.22 97 1005.1
20260506030224 48 348 2.6 5.2 0.04 0.27 0.22 97 1005.1
20260506025724 48 70 1.7 5.2 0.04 0.26 0.22 97 1005.1
20260506025222 48 341 1.7 5.2 0.04 0.26 0.21 97 1005.1
20260506024721 48 3 1.7 5.2 0.04 0.26 0.21 97 1005.1
20260506024221 48 351 0.9 6.1 0.04 0.25 0.20 97 1005.2
20260506023737 48 336 2.6 6.1 0.04 0.25 0.20 97 1005.2
20260506023440 48 31 1.7 5.2 0.04 0.25 0.20 97 1005.3
20260506022719 48 358 0.0 3.5 0.04 0.24 0.20 97 1005.2
20260506022218 48 21 0.0 3.5 0.04 0.24 0.19 97 1005.2
20260506021719 48 320 0.9 5.2 0.04 0.24 0.19 97 1005.2
20260506021217 48 0 0.9 5.2 0.04 0.23 0.19 97 1005.2
20260506020717 48 331 0.9 3.5 0.04 0.23 0.18 97 1005.3
20260506020216 48 53 2.6 3.5 0.04 0.22 0.18 97 1005.4
20260506015716 48 20 0.9 6.1 0.04 0.22 0.17 97 1005.4
20260506015225 48 41 0.9 6.1 0.04 0.22 0.17 97 1005.6
20260506014715 48 44 0.9 6.1 0.04 0.22 0.17 96 1005.3
20260506014214 48 33 0.9 3.5 0.04 0.21 0.17 96 1005.5
20260506013715 48 325 2.6 3.5 0.04 0.21 0.16 96 1005.5
20260506013213 48 15 0.9 6.1 0.04 0.20 0.16 96 1005.5
20260506012712 48 17 3.5 6.1 0.04 0.20 0.15 96 1005.5
20260506012212 48 334 1.7 6.1 0.05 0.20 0.15 96 1005.4
20260506011712 48 343 0.9 6.1 0.05 0.20 0.15 96 1005.6
20260506011211 48 356 0.9 3.5 0.05 0.19 0.15 96 1005.6
20260506010711 48 351 1.7 3.5 0.05 0.19 0.14 96 1005.5
20260506010210 48 338 0.0 3.5 0.05 0.19 0.14 96 1005.8
20260506005710 48 338 0.9 5.2 0.05 0.18 0.13 96 1005.6
20260506005209 48 340 2.6 5.2 0.05 0.18 0.13 96 1005.7
20260506004708 48 29 0.9 5.2 0.05 0.17 0.13 96 1005.6
20260506004207 48 38 1.7 5.2 0.05 0.17 0.12 96 1005.8
20260506003707 48 340 1.7 6.1 0.05 0.17 0.12 96 1005.7
20260506003427 48 340 2.6 7.0 0.04 0.16 0.11 96 1005.9